Ann Arbor, MI

10:09 PM EST on January 22, 2018 (GMT -0500)
Ann Arbor Municipal

Weather History for KARB - March, 2013

Change the Weather History Date:

Tuesday, March 26, 2013

  Actual Average Record
Temperature  
Mean Temperature 38 °F -  
Max Temperature 46 °F 46 °F 80 °F (2007)
Min Temperature 33 °F 27 °F 7 °F (2001)
Degree Days  
Heating Degree Days 27    
Moisture  
Dew Point 26 °F    
Average Humidity 65    
Maximum Humidity 78    
Minimum Humidity 49    
Precipitation  
Precipitation 0.00 in - - ()
Sea Level Pressure  
Sea Level Pressure 30.04 in    
Wind  
Wind Speed 10 mph (NW)    
Max Wind Speed 16 mph    
Max Gust Speed 21 mph    
Visibility 10 miles    
Events Snow    
Averages and records for this station are not official NWS values.
T = Trace of Precipitation, MM = Missing Value Source: NWS Daily Summary

Daily Weather History Graph

Daily Weather History Graph

Search for Another Location

Airport or City:

Trip Planner

Search our weather history database for the weather conditions in past years. The results will help you decide how hot, cold, wet, or windy it might be!

Date:

Astronomy

Mar. 26, 2013 Rise Set
Actual Time 7:27 AM EDT 7:54 PM EDT
Civil Twilight 6:59 AM EDT 8:22 PM EDT
Nautical Twilight 6:26 AM EDT 8:55 PM EDT
Astronomical Twilight 5:52 AM EDT 9:29 PM EDT
Moon 7:30 PM EDT (3/26) 6:43 AM EDT (3/26)
Length of Visible Light 13h 23m
Length of Day
12h 26m
Waxing Gibbous, 99% of the Moon is Illuminated
Mar 26
Waxing Gibbous
Mar 27
Full
Apr 3
Last Quarter
Apr 10
New
Apr 18
First Quarter

Hourly Weather History & Observations

Time (EDT) Temp. Windchill Dew Point Humidity Pressure Visibility Wind Dir Wind Speed Gust Speed Precip Events Conditions
12:53 AM 35.1 °F 27.4 °F 26.1 °F 70% 29.93 in 10.0 mi NNW 10.4 mph - N/A   Overcast
1:53 AM 34.0 °F 26.0 °F 27.0 °F 75% 29.94 in 10.0 mi NNW 10.4 mph - N/A   Overcast
2:53 AM 34.0 °F 27.2 °F 27.0 °F 75% 29.95 in 10.0 mi NNW 8.1 mph - N/A   Overcast
3:53 AM 33.1 °F 25.5 °F 26.1 °F 75% 29.95 in 10.0 mi NNW 9.2 mph - N/A   Overcast
4:53 AM 33.1 °F 24.9 °F 25.0 °F 72% 29.96 in 10.0 mi NNW 10.4 mph - N/A   Overcast
5:53 AM 33.1 °F 24.9 °F 25.0 °F 72% 29.97 in 10.0 mi NNW 10.4 mph - N/A   Overcast
7:53 AM 33.1 °F 26.9 °F 26.1 °F 75% 30.01 in 10.0 mi NW 6.9 mph - N/A   Overcast
8:53 AM 34.0 °F 27.2 °F 26.1 °F 73% 30.03 in 10.0 mi NW 8.1 mph - N/A   Overcast
9:53 AM 35.1 °F 26.9 °F 27.0 °F 72% 30.04 in 10.0 mi NW 11.5 mph - N/A   Overcast
10:53 AM 37.0 °F 30.4 °F 27.0 °F 67% 30.05 in 10.0 mi WNW 9.2 mph - N/A   Overcast
11:53 AM 42.1 °F 35.7 °F 28.0 °F 58% 30.06 in 10.0 mi NW 11.5 mph 18.4 mph N/A   Mostly Cloudy
12:01 PM 41.0 °F 35.8 °F 28.4 °F 61% 30.04 in 10.0 mi NNW 8.1 mph - N/A   Mostly Cloudy
12:15 PM 42.8 °F 35.8 °F 28.4 °F 57% 30.04 in 10.0 mi NW 13.8 mph - N/A   Scattered Clouds
12:26 PM 42.8 °F 37.5 °F 28.4 °F 57% 30.04 in 10.0 mi NNW 9.2 mph 19.6 mph N/A   Mostly Cloudy
12:53 PM 43.0 °F 37.2 °F 28.0 °F 56% 30.05 in 10.0 mi NW 10.4 mph - N/A   Overcast
1:18 PM 42.8 °F 37.5 °F 26.6 °F 53% 30.03 in 10.0 mi NNW 9.2 mph - N/A   Overcast
1:53 PM 41.0 °F 32.8 °F 26.1 °F 55% 30.05 in 10.0 mi NNW 16.1 mph - N/A   Overcast
2:53 PM 42.1 °F 35.7 °F 26.1 °F 53% 30.05 in 10.0 mi WNW 11.5 mph - N/A   Mostly Cloudy
3:53 PM 41.0 °F 33.9 °F 23.0 °F 49% 30.05 in 10.0 mi NNW 12.7 mph - N/A   Overcast
4:53 PM 37.9 °F 29.2 °F 24.1 °F 57% 30.06 in 10.0 mi NW 15.0 mph 20.7 mph N/A   Overcast
5:53 PM 39.0 °F 32.8 °F 21.9 °F 50% 30.07 in 10.0 mi WNW 9.2 mph - N/A   Overcast
6:53 PM 39.0 °F 32.3 °F 25.0 °F 57% 30.08 in 10.0 mi WNW 10.4 mph - N/A   Overcast
7:53 PM 37.0 °F 29.8 °F 26.1 °F 65% 30.10 in 10.0 mi West 10.4 mph - N/A   Overcast
8:53 PM 36.0 °F 28.0 °F 27.0 °F 70% 30.12 in 10.0 mi WNW 11.5 mph - N/A   Overcast
9:53 PM 35.1 °F 29.3 °F 28.0 °F 76% 30.13 in 9.0 mi WNW 6.9 mph - 0.00 in Snow Light Snow
10:53 PM 35.1 °F 27.4 °F 28.0 °F 76% 30.12 in 10.0 mi WNW 10.4 mph - 0.00 in   Overcast
11:53 PM 35.1 °F 26.4 °F 28.9 °F 78% 30.12 in 10.0 mi WNW 12.7 mph - N/A   Overcast